Index of /20260505/WXO-DD/model_gdps/15km/00/074
Name Last modified Size Description
Parent Directory -
20260505T00Z_MSC_GDPS_AirTemp_AGL-120m_LatLon0.15_PT074H.grib2 2026-05-05 03:59 904K
20260505T00Z_MSC_GDPS_AirTemp_AGL-2m_LatLon0.15_PT074H.grib2 2026-05-05 03:59 1.0M
20260505T00Z_MSC_GDPS_AirTemp_AGL-40m_LatLon0.15_PT074H.grib2 2026-05-05 03:59 925K
20260505T00Z_MSC_GDPS_AirTemp_AGL-80m_LatLon0.15_PT074H.grib2 2026-05-05 03:59 913K
20260505T00Z_MSC_GDPS_Albedo_Sfc_LatLon0.15_PT074H.grib2 2026-05-05 03:59 244K
20260505T00Z_MSC_GDPS_ConvectivePrecip-Accum_Sfc_LatLon0.15_PT074H.grib2 2026-05-05 03:59 3.3M
20260505T00Z_MSC_GDPS_DewPointDepression_AGL-2m_LatLon0.15_PT074H.grib2 2026-05-05 03:59 761K
20260505T00Z_MSC_GDPS_DewPoint_AGL-2m_LatLon0.15_PT074H.grib2 2026-05-05 03:59 607K
20260505T00Z_MSC_GDPS_DownwardLongwaveRadiationFlux-Accum_Sfc_LatLon0.15_PT074H.grib2 2026-05-05 03:59 919K
20260505T00Z_MSC_GDPS_DownwardShortwaveRadiationFlux-Accum_Sfc_LatLon0.15_PT074H.grib2 2026-05-05 03:59 1.1M
20260505T00Z_MSC_GDPS_FreezingRain-Accum1h_Sfc_LatLon0.15_PT074H.grib2 2026-05-05 03:59 34K
20260505T00Z_MSC_GDPS_FreezingRain-Accum_Sfc_LatLon0.15_PT074H.grib2 2026-05-05 03:59 304K
20260505T00Z_MSC_GDPS_IcePellets-Accum1h_Sfc_LatLon0.15_PT074H.grib2 2026-05-05 03:59 14K
20260505T00Z_MSC_GDPS_IcePellets-Accum_Sfc_LatLon0.15_PT074H.grib2 2026-05-05 03:59 91K
20260505T00Z_MSC_GDPS_LatentHeatNetFlux_Sfc_LatLon0.15_PT074H.grib2 2026-05-05 03:59 509K
20260505T00Z_MSC_GDPS_NetLongwaveRadiationFlux-Accum_Sfc_LatLon0.15_PT074H.grib2 2026-05-05 03:59 898K
20260505T00Z_MSC_GDPS_NetShortwaveRadiationFlux-Accum_Sfc_LatLon0.15_PT074H.grib2 2026-05-05 03:59 1.1M
20260505T00Z_MSC_GDPS_O3MixingRatio_Sfc_LatLon0.15_PT074H.grib2 2026-05-05 04:46 1.9M
20260505T00Z_MSC_GDPS_O3_EAtm_LatLon0.15_PT074H.grib2 2026-05-05 04:46 2.4M
20260505T00Z_MSC_GDPS_PlanetaryBoundaryLayerHeight_Sfc_LatLon0.15_PT074H.grib2 2026-05-05 03:59 2.4M
20260505T00Z_MSC_GDPS_Precip-Accum1h_Sfc_LatLon0.15_PT074H.grib2 2026-05-05 03:59 3.2M
20260505T00Z_MSC_GDPS_Precip-Accum_Sfc_LatLon0.15_PT074H.grib2 2026-05-05 03:59 4.9M
20260505T00Z_MSC_GDPS_PrecipRate_Sfc_LatLon0.15_PT074H.grib2 2026-05-05 03:59 2.9M
20260505T00Z_MSC_GDPS_Pressure_MSL_LatLon0.15_PT074H.grib2 2026-05-05 03:59 715K
20260505T00Z_MSC_GDPS_Pressure_Sfc_LatLon0.15_PT074H.grib2 2026-05-05 03:59 1.1M
20260505T00Z_MSC_GDPS_RadiativeTemp_Sfc_LatLon0.15_PT074H.grib2 2026-05-05 03:59 657K
20260505T00Z_MSC_GDPS_Rain-Accum1h_Sfc_LatLon0.15_PT074H.grib2 2026-05-05 03:59 1.4M
20260505T00Z_MSC_GDPS_Rain-Accum_Sfc_LatLon0.15_PT074H.grib2 2026-05-05 03:59 3.8M
20260505T00Z_MSC_GDPS_RelativeHumidity_AGL-2m_LatLon0.15_PT074H.grib2 2026-05-05 03:59 1.0M
20260505T00Z_MSC_GDPS_Runoff-Accum_Sfc_LatLon0.15_PT074H.grib2 2026-05-05 03:59 112K
20260505T00Z_MSC_GDPS_SensibleHeatNetFlux_Sfc_LatLon0.15_PT074H.grib2 2026-05-05 03:59 458K
20260505T00Z_MSC_GDPS_Snow-Accum1h_Sfc_LatLon0.15_PT074H.grib2 2026-05-05 03:59 1.2M
20260505T00Z_MSC_GDPS_Snow-Accum_Sfc_LatLon0.15_PT074H.grib2 2026-05-05 03:59 1.9M
20260505T00Z_MSC_GDPS_SnowDepth_Sfc_LatLon0.15_PT074H.grib2 2026-05-05 03:59 1.7M
20260505T00Z_MSC_GDPS_SoilTemp_DBS-0to10cm_LatLon0.15_PT074H.grib2 2026-05-05 03:59 509K
20260505T00Z_MSC_GDPS_SoilTemp_Sfc_LatLon0.15_PT074H.grib2 2026-05-05 03:59 564K
20260505T00Z_MSC_GDPS_SoilVolumetricWaterContent_DBS-0to10cm_LatLon0.15_PT074H.grib2 2026-05-05 03:59 596K
20260505T00Z_MSC_GDPS_SoilVolumetricWaterContent_DBS-0to1cm_LatLon0.15_PT074H.grib2 2026-05-05 03:59 657K
20260505T00Z_MSC_GDPS_SpecificHumidity_AGL-120m_LatLon0.15_PT074H.grib2 2026-05-05 03:59 1.1M
20260505T00Z_MSC_GDPS_SpecificHumidity_AGL-2m_LatLon0.15_PT074H.grib2 2026-05-05 03:59 1.2M
20260505T00Z_MSC_GDPS_SpecificHumidity_AGL-40m_LatLon0.15_PT074H.grib2 2026-05-05 03:59 1.1M
20260505T00Z_MSC_GDPS_SpecificHumidity_AGL-80m_LatLon0.15_PT074H.grib2 2026-05-05 03:59 1.1M
20260505T00Z_MSC_GDPS_SpecificHumidity_Sfc_LatLon0.15_PT074H.grib2 2026-05-05 03:59 640K
20260505T00Z_MSC_GDPS_TotalCloudCover_Sfc_LatLon0.15_PT074H.grib2 2026-05-05 03:59 819K
20260505T00Z_MSC_GDPS_UVIndex-ClearSky_Sfc_LatLon0.15_PT074H.grib2 2026-05-05 04:46 1.0M
20260505T00Z_MSC_GDPS_UVIndex_Sfc_LatLon0.15_PT074H.grib2 2026-05-05 04:46 1.5M
20260505T00Z_MSC_GDPS_UpwardLongwaveRadiationFlux_NTAtm_LatLon0.15_PT074H.grib2 2026-05-05 03:59 834K
20260505T00Z_MSC_GDPS_WindDir_AGL-10m_LatLon0.15_PT074H.grib2 2026-05-05 03:59 1.3M
20260505T00Z_MSC_GDPS_WindDir_AGL-120m_LatLon0.15_PT074H.grib2 2026-05-05 03:59 1.3M
20260505T00Z_MSC_GDPS_WindDir_AGL-40m_LatLon0.15_PT074H.grib2 2026-05-05 03:59 1.4M
20260505T00Z_MSC_GDPS_WindDir_AGL-80m_LatLon0.15_PT074H.grib2 2026-05-05 03:59 1.4M
20260505T00Z_MSC_GDPS_WindDir_IsbL-0700_LatLon0.15_PT074H.grib2 2026-05-05 03:59 1.6M
20260505T00Z_MSC_GDPS_WindGust-Max_AGL-10m_LatLon0.15_PT074H.grib2 2026-05-05 03:59 2.2M
20260505T00Z_MSC_GDPS_WindGust-Min_AGL-10m_LatLon0.15_PT074H.grib2 2026-05-05 03:59 2.2M
20260505T00Z_MSC_GDPS_WindGust_AGL-10m_LatLon0.15_PT074H.grib2 2026-05-05 03:59 2.2M
20260505T00Z_MSC_GDPS_WindSpeed_AGL-10m_LatLon0.15_PT074H.grib2 2026-05-05 03:59 1.1M
20260505T00Z_MSC_GDPS_WindSpeed_AGL-120m_LatLon0.15_PT074H.grib2 2026-05-05 03:59 1.2M
20260505T00Z_MSC_GDPS_WindSpeed_AGL-40m_LatLon0.15_PT074H.grib2 2026-05-05 03:59 1.2M
20260505T00Z_MSC_GDPS_WindSpeed_AGL-80m_LatLon0.15_PT074H.grib2 2026-05-05 03:59 1.2M
20260505T00Z_MSC_GDPS_WindSpeed_IsbL-0700_LatLon0.15_PT074H.grib2 2026-05-05 03:59 1.5M
20260505T00Z_MSC_GDPS_WindU_AGL-10m_LatLon0.15_PT074H.grib2 2026-05-05 03:59 1.5M
20260505T00Z_MSC_GDPS_WindU_AGL-120m_LatLon0.15_PT074H.grib2 2026-05-05 03:59 963K
20260505T00Z_MSC_GDPS_WindU_AGL-40m_LatLon0.15_PT074H.grib2 2026-05-05 03:59 1.2M
20260505T00Z_MSC_GDPS_WindU_AGL-80m_LatLon0.15_PT074H.grib2 2026-05-05 03:59 963K
20260505T00Z_MSC_GDPS_WindU_IsbL-0700_LatLon0.15_PT074H.grib2 2026-05-05 03:59 1.2M
20260505T00Z_MSC_GDPS_WindV_AGL-10m_LatLon0.15_PT074H.grib2 2026-05-05 03:59 1.3M
20260505T00Z_MSC_GDPS_WindV_AGL-120m_LatLon0.15_PT074H.grib2 2026-05-05 03:59 965K
20260505T00Z_MSC_GDPS_WindV_AGL-40m_LatLon0.15_PT074H.grib2 2026-05-05 03:59 957K
20260505T00Z_MSC_GDPS_WindV_AGL-80m_LatLon0.15_PT074H.grib2 2026-05-05 03:59 963K
20260505T00Z_MSC_GDPS_WindV_IsbL-0700_LatLon0.15_PT074H.grib2 2026-05-05 03:59 1.2M